www.pogodaiklimat.ru

Погода и климат >> Архив погоды >> Казахстан >> Жарык


АРХИВ ПОГОДЫ в Жарыке

Время (UTC), дата Ветер
(напр.,м/с)
 
Видим.   Явления Облачность Т
(С)
Тd
(С)
f
(%)
Тe
(С)
Тes
(С)
Комфортность P
(гПа)
Po
(гПа)
Тmin
(С)
Tmax
(С)
R
(мм)
R24
(мм)
S
(см)
18 11.09 штиль 0 н/о ясно +5.2 +4.5 95 +4 +4 1030.6 951.9 +16.0
21 11.09 штиль 0 н/о 6/0
[Ac trans]
+4.5 +3.6 94 +3 +3 1030.8 951.9
00 12.09 штиль 0 н/о ясно +2.4 +2.2 99 +1 +1 1031.6 952.0
03 12.09 штиль 0 20 км ясно +9.0 +6.7 85 +8 +12 1030.0 952.4
06 12.09 В 1 20 км 8/8 600 м
[Cb cap]
+13.0 +4.7 57 +13 +16 1028.6 952.1 +2.4
09 12.09 С 2 20 км 4/0
[Ac lent]
+16.1 +2.1 39 +16 +22 1025.9 950.3
12 12.09 С 2 20 км 3/0
[Ci fib]
+17.0 +2.1 37 +17 +18 1024.3 949.1
15 12.09 штиль 0 н/о ясно +9.0 +4.4 73 +8 +8 1026.5 949.1 +17.5
18 12.09 штиль 0 н/о ясно +5.5 +4.1 91 +4 +4 1026.5 948.2 +17.5
21 12.09 штиль 0 н/о ясно +3.1 +2.6 97 +2 +2 1025.9 947.0
00 13.09 штиль 0 н/о 6/6 1000 м
[Sc]
+4.7 +3.8 94 +4 +4 1025.2 946.8
03 13.09 ЮЗ 1 20 км 1/1 1000 м
[Sc]
+9.0 +4.4 73 +9 +11 1024.3 947.1
06 13.09 З 1 20 км 4/0
[Ac lent]
+16.3 +1.9 38 +17 +25 1022.2 947.0 +2.0
09 13.09 СЗ 2 20 км 6/6 1000 м
[Cu med, cong]
+18.5 +3.0 36 +19 +23 1020.7 946.1
12 13.09 З 2 20 км 9/3 600 м
[Cb cap Ac trans]
+17.4 +4.5 42 +18 +18 1020.4 945.6
15 13.09 СЗ 1 н/о 9/0
[Ac lent]
+14.4 +8.8 69 +15 +15 1021.9 946.3 +18.5
18 13.09 штиль 0 н/о 8/8 1000 м
[Sc]
+11.4 +8.9 85 +11 +11 1022.4 946.0 +18.5
21 13.09 штиль 0 н/о 8/8 1000 м
[Sc]
+8.6 +7.2 91 +8 +8 1022.5 945.4
00 14.09 штиль 0 н/о 9/9 1000 м
[Sc]
+8.2 +6.3 88 +7 +7 1022.5 945.2
03 14.09 штиль 0 20 км 9/9 1000 м
[Sc]
+11.8 +7.1 73 +11 +12 1022.1 945.8
06 14.09 С 1 20 км 6/6 1000 м
[Sc]
+17.8 +2.1 35 +19 +23 1020.3 945.6 +8.2
09 14.09 С 1 20 км 6/6 1000 м
[Cu med, cong]
+18.6 +2.8 35 +20 +24 1018.9 944.5
12 14.09 С 2 20 км 3/3 1000 м
[Cu hum]
+18.8 +3.5 36 +20 +20 1018.2 943.9
15 14.09 С 2 н/о ясно +11.8 +5.3 64 +11 +11 1020.9 944.7 +19.0
18 14.09 С 1 н/о ясно +9.4 +4.8 73 +9 +9 1020.8 944.0 +19.0
21 14.09 СВ 1 н/о ясно +9.6 +4.1 69 +9 +9 1020.0 943.3
00 15.09 СВ 2 н/о ясно +9.7 +4.0 68 +8 +8 1020.0 943.3
03 15.09 СВ 2 20 км ясно +15.0 +3.8 47 +15 +17 1018.7 943.4
06 15.09 ЮВ 2 20 км 3/3 1000 м
[Cu hum]
+19.5 +1.8 31 +20 +27 1017.2 941.3 +9.4
09 15.09 В 1 20 км 6/6 1000 м
[Cu med, cong]
+21.1 +3.0 30 +21 +25 комфорт 1015.7 942.1
12 15.09 СВ 1 20 км 8/3 1000 м
[Sc Ac trans Ci sp]
+21.0 +2.6 30 +22 +23 комфорт 1015.4 941.8
15 15.09 СВ 1 н/о 3/0
[Ac lent]
+12.6 +5.0 60 +13 +13 1018.2 942.4 +22.0
18 15.09 СВ 2 н/о 4/0
[Ci sp]
+11.1 +3.7 60 +10 +10 1018.1 941.9 +22.0
21 15.09 В 2 н/о 9/9 1000 м
[Cb cap]
+14.2 +3.2 47 +14 +14 1016.6 941.3
00 16.09 штиль 0 н/о 9/9 1000 м
[Sc]
+11.2 +5.5 68 +11 +11 1017.0 940.9
03 16.09 Ю 1 20 км 8/4 1000 м
[Sc Ac lent Ci sp]
+12.2 +6.3 67 +12 +13 1016.5 940.7
06 16.09 Ю 3 20 км 9/0
[Ac lent Ci sp]
+17.7 +2.9 37 +18 +22 1015.1 940.7 +11.1
09 16.09 Ю 1 20 км 9/8 600 м
[Cb cap Ac lent Ci sp]
+18.2 +4.6 41 +19 +21 1014.5 940.3
12 16.09 ЮВ 3 20 км 8/3 600 м
[Cb cap Ac trans Ci sp]
+18.0 +5.4 43 +18 +18 1014.1 939.9
15 16.09 ЮВ 1 н/о 3/0
[Ac lent]
+13.6 +6.3 61 +14 +14 1016.0 940.6 +20.0
18 16.09 штиль 0 н/о 3/0
[Ac trans]
+11.0 +6.0 71 +11 +11 1017.0 940.9 +20.0
21 16.09 штиль 0 н/о 4/0
[Ac trans]
+10.6 +6.0 73 +10 +10 1017.0 940.8
00 17.09 штиль 0 н/о 3/0
[Ac trans]
+9.0 +5.8 80 +8 +8 1018.6 941.8
03 17.09 штиль 0 20 км 9/0
[Ac lent]
+13.6 +5.6 58 +13 +14 1018.5 942.9
06 17.09 ЮЗ 3 20 км 9/0
[Ac lent]
+20.8 +1.5 28 +21 +23 комфорт 1017.2 943.4 +9.0
09 17.09 ЮЗ 4 20 км 6/3 1000 м
[Cu hum Ac lent]
+23.6 -1.0 20 +22 +25 комфорт 1015.8 942.8
12 17.09 ЮЗ 3 20 км 9/0
[Ac lent Ci fib]
+22.8 -2.0 19 +22 +22 комфорт 1016.3 943.0
15 17.09 ЮЗ 2 н/о 8/0
[Ac lent]
+16.8 +1.1 35 +17 +17 1018.3 943.5 +24.0
18 17.09 Ю 2 н/о 4/0
[Ci fib]
+15.0 -0.6 34 +15 +15 1019.2 943.8 +24.0
21 17.09 штиль 0 н/о 4/0
[Ci fib]
+10.6 +2.7 58 +10 +10 1020.4 943.9
00 18.09 штиль 0 н/о ясно +6.3 +3.1 80 +5 +5 1021.8 944.0
03 18.09 В 1 20 км 3/0
[Ci fib]
+16.6 +0.1 33 +18 +20 1019.2 944.2
06 18.09 Ю 3 20 км 8/0
[Ci sp]
+24.0 -1.7 18 +22 +29 комфорт 1016.3 943.3 +6.3
09 18.09 Ю 2 20 км 8/0
[Ci fib]
+25.6 +0.3 19 +24 +30 комфорт 1013.8 941.4
12 18.09 Ю 4 20 км 8/0
[Ci fib]
+24.4 +0.1 20 +23 +24 комфорт 1013.0 940.4
15 18.09 В 2 н/о ясно +16.4 +1.5 37 +17 +17 1014.9 940.2 +26.5

 

Местоположение метеостанции Жарык (Карагандинская область, Казахстан): широта 48.85 долгота 72.87 высота над уровнем моря 656 м.

В архиве по умолчанию представлена погода в Жарыке за последнюю неделю. Архивные данные за месяц целиком и за предыдущие месяцы, начиная с января 2011 года, Вы можете получить, выбрав интересующий диапазон дат из раскрывающегося списка и нажав кнопку "Ввод!".


*Определитесь, кто Вы:
робот инопланетянин человек

Внимание! Время в таблицах - всемирное. Для получения местного времени необходимо прибавить поправку, которая равна 6 ч.

Смотрите также архив погоды в соседних городах и на ближайших метеорологических станциях:

Погода в Агадыре (Карагандинская область, Казахстан) (65 км)
Погода в Аксу-Аюлы (Карагандинская область, Казахстан) (65 км)
Погода в Топаре (Карагандинская область, Казахстан) (74 км)
Погода в Атасу (Карагандинская область, Казахстан) (92 км)
Погода в Корнеевке (Карагандинская область, Казахстан) (106 км)
Погода в Караганде (Карагандинская область, Казахстан) (108 км)
Погода в Караганде-ШОС (Карагандинская область, Казахстан) (108 км)
Погода в Бесобе (Карагандинская область, Казахстан) (129 км)
Погода в Кызылтау (Карагандинская область, Казахстан) (133 км)
Погода в Темиртау (Карагандинская область, Казахстан) (136 км)

Пояснения к столбцам:

Ветер - указаны скорость ветра в м/с - средняя за 10 мин, порывы в срок и между сроками (в фигурных скобках) и направление, откуда дует ветер: С - северный, СВ - северо-восточный, В - восточный, ЮВ - юго-восточный, Ю - южный, ЮЗ - юго-западный, З - западный, СЗ - северо-западный.
Видимость - горизонтальная дальность видимости в метрах или километрах. При видимости от 1 до 10 км при отсутствии осадков обычно наблюдается дымка, при ухудшении видимости до 1 км и менее - туман. В сухую погоду видимость может ухудшаться дымом, пылью или мглою.
Явления - указаны атмосферные явления, наблюдавшиеся в срок или в последний час перед сроком; фигурными скобками обозначены явления, наблюдавшиеся между сроками (за 1-3 часа до срока); квадратными скобками обозначены град или гололедные отложения с указанием их диаметра в мм.
Облачность - указаны через наклонную черту общая и нижняя облачность в баллах и высота нижней границы облаков в метрах; квадратными скобками обозначены формы облаков: Ci - перистые, Cs - перисто-слоистые, Cc - перисто-кучевые, Ac - высококучевые, As - высокослоистые, Sc - слоисто-кучевые, Ns - слоисто-дождевые, Cu - кучевые, Cb - кучево-дождевые. Подробнее классификацию облаков см. в Атласе облаков (PDF).
T - Температура воздуха - температура, измеренная на высоте 2 м над землей.
Td - Температура точки росы - температура, при понижении до которой содержащийся в воздухе водяной пар достигнет насыщения.
f - Относительная влажность воздуха - влажноcть воздуха, измеренная на высоте 2 м над землей.
Te - Эффективная температура - температура, которую ощущает одетый по сезону человек в тени. Характеристика душности погоды. При расчете учитывается влияние влажности воздуха и скорости ветра на теплоощущения человека.
Tes - Эффективная температура на солнце - температура, которую ощущает человек, с поправкой на солнечный нагрев. Характеристика знойности погоды. Зависит от высоты солнца над горизонтом, облачности и скорости ветра. Ночью, в пасмурную погоду, а также при ветре 12 м/с и более поправка равна нулю.
P - Атмосферное давление - приведенное к уровню моря атмосферное давление.
Po - Атмосферное давление - измеренное на уровне метеостанции атмосферное давление.
Tmin - Минимальная температура - минимум температуры воздуха на высоте 2 м над землей.
Tmax - Максимальная температура - максимум температуры воздуха на высоте 2 м над землей.
R - Количество осадков - Количество выпавших осадков за период времени, мм. При наведении курсора мыши на число - период времени, за который выпало указанное количество осадков.
R24 - Количество осадков - Количество выпавших осадков за 24 часа, мм.
S - Снежный покров - Высота снежного покрова, см. При наведении курсора мыши на число - состояние снежного покрова и степень покрытия местности в баллах.